Regional Weather Roundup
Issued by NWS

Home | Current Version | Previous Version | Graphics & Text | Print | Product List | Glossary On
Versions: 1 2 3 4 5 6 7 8 9 10 11 12 13 14 15 16 17 18 19 20 21 22 23 24 25 26 27 28 29 30 31 32 33 34 35 36 37 38 39 40 41 42 43 44 45 46 47 48 49 50
000
ASUS45 KBOU 241307
RWRCO

WEATHER ROUNDUP FOR COLORADO
NATIONAL WEATHER SERVICE DENVER/BOULDER CO
700 AM MDT SUN MAY 24 2015

NOTE: "FAIR" INDICATES FEW OR NO CLOUDS BELOW 12000 FEET WITH NO
SIGNIFICANT WEATHER AND/OR OBSTRUCTIONS TO VISIBILITY.

COZ001>005-013-030-031-241400-
...NORTHWEST COLORADO...

CITY           SKY/WX    TMP DP  RH WIND       PRES   REMARKS
CRAIG          CLOUDY    41  37  86 CALM      29.96S
HAYDEN         CLOUDY    39  34  81 E7        29.97S
MEEKER         CLOUDY    40  36  86 CALM      29.98S
MOUNT WERNER   NOT AVBL
STEAMBOAT SPGS CLOUDY    38  35  87 E5        29.97F
WALDEN         CLOUDY    34  32  93 SE7       30.07R WCI  28
$$

COZ006>008-011-241400-
...WEST CENTRAL VALLEYS...

CITY           SKY/WX    TMP DP  RH WIND       PRES   REMARKS
GRAND JUNCTION PTSUNNY   45  43  93 E3        29.96S
MONTROSE       CLOUDY    41  38  89 SE7       30.01S
EAGLE          CLOUDY    39  36  87 CALM      30.02S
RIFLE          CLOUDY    45  41  86 CALM      29.98R
DELTA          PTSUNNY   46  44  95 MISG      29.99S
NUCLA          CLOUDY    41  37  87 E7        30.04R
$$

COZ017>023-064>068-241400-
...SOUTHWEST COLORADO...

CITY           SKY/WX    TMP DP  RH WIND       PRES   REMARKS
DURANGO        CLOUDY    40  39  97 SW5       30.01S
CORTEZ         CLOUDY    42  40  92 NE5       30.00S
PAGOSA SPRINGS RAIN      38  37  96 CALM      30.03R
TELLURIDE      CLOUDY    32  30  92 CALM      30.06S
WOLF CREEK PAS NOT AVBL
$$

COZ009-010-012-014-032>034-037-058>063-241400-
...CENTRAL COLORADO...

CITY           SKY/WX    TMP DP  RH WIND       PRES   REMARKS
ASPEN          PTSUNNY   37  34  89 S5        29.99F
BUENA VISTA    PTSUNNY   36  31  80 CALM      29.99F
COPPER MTN     LGT SNOW  28  21  74 S6        30.07S WCI  22
BERTHOUD PASS  FAIR      19  12  73 NW9       30.09S WCI   9
COTTONWOOD PAS PTSUNNY   36  28  75 S3        30.03S
GUNNISON       PTSUNNY   37  30  75 NE3       30.04S
KREMMLING      CLOUDY    36  32  87 E7        30.03S
LEADVILLE      CLOUDY    30  25  81 N3        30.02S
MONARCH PASS   FOG       23  21  93 MISG      30.18S VSB<1/4
SALIDA         PTSUNNY   37  33  82 CALM      30.06F
SUNLIGHT       CLOUDY    32  30  93 CALM        N/A
WILKERSON PASS PTSUNNY   28  27  93 SW3       30.08F
$$

COZ069>075-241400-
...SAN LUIS VALLEY/SANGRE DE CRISTO MOUNTAINS...

CITY           SKY/WX    TMP DP  RH WIND       PRES   REMARKS
ALAMOSA        LGT RAIN  42  32  67 SE7       29.98S
LA VETA PASS   PTSUNNY  N/A N/A N/A MISG      30.03F
SAGUACHE       CLOUDY    37  30  75 NW5       30.01R
$$

COZ035-036-038>040-241400-
...NORTHERN COLORADO FRONT RANGE...

CITY           SKY/WX    TMP DP  RH WIND       PRES   REMARKS
DENVER INTL AP MOSUNNY   46  42  86 SE5       29.91F
DMNS CITY PARK   N/A     44  39  82 SW6       29.91S
AURORA         MOSUNNY   43  42  95 S5        29.91F
FRONT RANGE AP MOSUNNY   46  43  87 CALM      29.92
ERIE MUNI ARPT SUNNY     41  40  95 CALM      29.91S
BOULDER MUN AP SUNNY     43  39  87 CALM      29.91S
CENTENNIAL     MOSUNNY   43  39  86 SE7       29.91F
BROOMFIELD     MOSUNNY   41  37  87 CALM      29.92S
FORT COLLINS   SUNNY     43  41  93 N5        29.92F
LONGMONT       SUNNY     45  42  88 CALM      29.93S
$$

COZ041-046-047-076>085-087-088-241400-
...PIKES PEAK/PALMER DIVIDE AND SOUTHERN FOOTHILLS...

CITY           SKY/WX    TMP DP  RH WIND       PRES   REMARKS
COLO. SPRINGS  PTSUNNY   43  40  89 N3        29.93F
A. F. ACADEMY  MOSUNNY   36  35  99 N5        29.93F
ELLICOTT       NOT AVBL
FALCON         MOSUNNY   43  40  90 W6        29.96S
FORT CARSON    MOSUNNY   42  41  97 N5        29.91F
LIMON          SUNNY     41  41 100 NW7       29.91F
MONUMENT HILL  NOT AVBL
TRINIDAD       SUNNY     43  37  79 W13       29.91F
$$

COZ042>045-048>051-090-091-241400-
...NORTHEAST COLORADO...

CITY           SKY/WX    TMP DP  RH WIND       PRES   REMARKS
GREELEY ARPT   SUNNY     45  39  81 SW3       29.92R
AKRON          FOG       45  45 100 W7        29.90S VSB 3/4
BURLINGTON     CLOUDY    52  47  83 CALM      29.89F
WRAY           CLOUDY   N/A N/A N/A SW5       29.89S
STERLING       CLOUDY    50  48  93 W5        29.89F
HOLYOKE        NOT AVBL
FORT MORGAN    FOG       46  44  95 N3        29.91F VSB 1
$$

COZ086-089-092>099-241400-
...SOUTHEAST COLORADO...

CITY           SKY/WX    TMP DP  RH WIND       PRES   REMARKS
PUEBLO         MOSUNNY   47  45  93 S3        29.89F
LA JUNTA       SUNNY     49  47  93 W8        29.88S
LAMAR          CLOUDY    56  54  93 SW9       29.85S
SPRINGFIELD      N/A     55  54  96 SW5       29.88S
$$


USA.gov is the U.S. government's official web portal to all federal, state and local government web resources and services.